Location: Sevilla
(37.3933°N, 5.9839°W)
Time: 05:57:45
(UTC+02:00)

Transit 2A Rocket - Pass Details

Date: 04 July 2024
Orbit: 582 x 910 km, 66.7° (Epoch: 15 July)

Event Time Altitude Azimuth Distance (km) Brightness Sun altitude
Rises 21:01:59 0° 260° (W) 3,181 9.3 7.4°
Reaches altitude 10° 21:05:22 10° 283° (WNW) 2,334 9.9 6.8°
Maximum altitude 21:08:22 15° 318° (NW) 2,071 8.7 6.2°
Drops below altitude 10° 21:11:30 10° 351° (N) 2,458 8.2 5.7°
Sets 21:15:16 0° 14° (NNE) 3,457 8.5 5.0°
